Meath Environmental Platform

Observations for Trim Patrick St

Time AQI Temp °C Hum % Pres Pa CO μg/m³ H₂S μg/m³ NO μg/m³ NO₂ μg/m³ O₃ μg/m³ SO₂ μg/m³ PM1 μg/m³ PM2.5 μg/m³ PM10 μg/m³
Monday 3 August 2026
07:21 1 17.5 73 38,460 0.17 0 1.86 10.71 46.37 0 4.57 9.26 10.18
07:20 1 17.4 73 38,460 0.18 0 1.91 10.78 47.19 0 3.71 8.54 9.39
07:19 1 17.4 73 38,460 0.19 0 1.87 12.6 40.89 0 3.71 7.81 8.6
07:15 1 17.3 73 38,460 0.17 0 1.97 9.35 44.69 0 3.71 8.54 9.39
07:14 1 17.3 73 38,460 0.19 0 1.88 11.11 46.94 0 3.71 7.79 8.57
07:13 1 17.2 74 38,460 0.19 0 2 10.02 49 0 2.86 7.07 7.78
07:12 1 17.2 73 38,460 0.18 0 2.01 10.02 40.95 0 4.57 8.52 9.37
07:11 1 17.2 74 38,460 0.19 0 1.94 11.67 46.36 0 4.57 8.48 9.33
07:10 1 17.2 74 38,460 0.19 0 1.78 11.53 42.99 0 4.57 9.2 10.12
07:09 1 17.1 74 38,460 0.2 0 1.83 8.48 47.35 0 3.71 7.05 7.76
07:08 1 17.1 74 38,460 0.2 0 1.61 11.62 46.96 0 4.57 8.46 9.3
07:07 1 17.1 74 38,460 0.2 0 1.71 11.75 45.85 0 3.71 7.02 7.73
07:06 1 17 74 38,460 0.21 0 1.78 12.99 34.61 0 5.43 8.45 9.29
07:05 1 17 74 38,460 0.18 0 1.83 9.6 50.65 0 4.57 9.87 10.85
07:04 1 17 74 38,460 0.2 0 1.8 11.58 43.87 0 4.57 7.72 8.49
07:03 1 17 74 38,460 0.21 0 1.92 10.96 45.66 0 2.86 7 7.7
07:02 1 16.9 75 38,460 0.2 0 1.84 11.29 43.84 0 4.57 8.42 9.26
07:01 1 16.9 75 38,460 0.2 0 1.89 10.34 46.5 0 3.71 7.68 8.45
07:00 1 16.8 75 38,460 0.2 0 1.94 12.26 42.61 0 4.57 8.39 9.23
06:59 1 16.8 75 38,460 0.19 0 2.01 12.26 45.34 0 3.71 6.97 7.66